User: anonymous   Login
Location: City of Moscow
(46.7306°N, 116.9989°W)
Time: 02:26:13
(UTC+00:00)
Language:

ARIANE 5 R/B - Orbit

View from above orbital plane
View from above orbital plane
View from above satellite
View from above satellite

Ground track
Ground track

The orbit is defined by the following mean orbital elements,

1 27387U          26039.63235513 +.00000000 +00000-0 +47044-4 0 00001
2 27387  98.8167  54.7496 0032709 144.0861 216.2531 14.36762741    09
Epoch (UTC): 08 February 2026 15:10:35
Eccentricity: 0.0032709
inclination: 98.8167°
perigee height: 746 km
apogee height: 793 km
right ascension of ascending node: 54.7496°
argument of perigee: 144.0861°
revolutions per day: 14.36762741
mean anomaly at epoch: 216.2531°

The dashed part of the orbit path shows where the satellite is in the earth's shadow,  

DLR